Voltar ao catálogo

DELTA 1 R/B

AtivoLEO
NORAD 2661·ROCKET BODY·🇺🇸 United States

Lançado Jan 26, 1967 de Vandenberg Space Force Base

Loading…

Próximas Passagens (próximas 24 horas)

TLE

AtualizadoSource: Space-Track

Época: Sep 14, 2026, 23:30 UTC

1 02661U 67006B   26257.97959336 -.00000022  00000-0  13511-3 0  9996
2 02661 101.9200 340.2993 0064713 238.4438 306.2678 12.68027872759537

Acompanhe DELTA 1 R/B em tempo real com AllMySat

Download on the App Store